Weather History for Leesburg, FL

Change the Weather History Date:

Wednesday, July 17, 2013

  Actual Average Record
Temperature  
Mean Temperature 84 °F -  
Max Temperature 93 °F 91 °F 98 °F (2002)
Min Temperature 75 °F 72 °F 68 °F (1977)
Cooling Degree Days 19    
Growing Degree Days 34 (Base 50)    
Moisture  
Dew Point 73 °F    
Average Humidity 76    
Maximum Humidity 94    
Minimum Humidity 48    
Precipitation  
Precipitation 0.00 in - - ()
Sea Level Pressure  
Sea Level Pressure 30.15 in    
Wind  
Wind Speed 7 mph (ENE)    
Max Wind Speed 17 mph    
Max Gust Speed 22 mph    
Visibility 10 miles    
Events      
Averages and records for this station are not official NWS values.
T = Trace of Precipitation, MM = Missing Value Source: NWS Daily Summary

Daily Weather History Graph

Daily Weather History Graph

Search for Another Location

Airport:

Trip Planner

Search our weather history database for the weather conditions in past years. The results will help you decide how hot, cold, wet, or windy it might be!

Date:

Astronomy

Jul. 17, 2013 Rise Set
Actual Time 6:40 AM EDT 8:26 PM EDT
Civil Twilight 6:13 AM EDT 8:52 PM EDT
Nautical Twilight 5:42 AM EDT 9:24 PM EDT
Astronomical Twilight 5:08 AM EDT 9:57 PM EDT
Moon 3:20 PM EDT (7/17) 1:37 AM EDT (7/17)
Length of Visible Light 14h 39m
Length of Day
13h 46m
Waxing Gibbous, 67% of the Moon is Illuminated
Jul 17
Waxing Gibbous
Jul 22
Full
Jul 29
Last Quarter
Aug 6
New
Aug 14
First Quarter

Hourly Weather History & Observations

Time (EDT) Temp. Heat Index Dew Point Humidity Pressure Visibility Wind Dir Wind Speed Gust Speed Precip Events Conditions
12:53 AM 77.0 °F - 73.9 °F 90% 30.19 in 10.0 mi ENE 4.6 mph - N/A   Clear
1:53 AM 77.0 °F - 73.9 °F 90% 30.17 in 10.0 mi NE 5.8 mph - N/A   Clear
2:53 AM 75.9 °F - 73.9 °F 94% 30.16 in 10.0 mi NE 4.6 mph - N/A   Clear
3:53 AM 75.9 °F - 73.9 °F 94% 30.16 in 10.0 mi NE 5.8 mph - N/A   Clear
4:53 AM 75.9 °F - 73.9 °F 94% 30.15 in 10.0 mi NE 4.6 mph - N/A   Clear
5:53 AM 75.9 °F - 73.9 °F 94% 30.16 in 10.0 mi NE 5.8 mph - N/A   Clear
6:53 AM 75.9 °F - 73.9 °F 94% 30.17 in 10.0 mi NE 4.6 mph - N/A   Clear
7:53 AM 79.0 °F - 75.0 °F 88% 30.19 in 10.0 mi NE 6.9 mph - N/A   Clear
8:53 AM 81.0 °F 86.7 °F 75.0 °F 82% 30.20 in 10.0 mi ENE 9.2 mph - N/A   Clear
9:53 AM 84.0 °F 91.2 °F 73.9 °F 72% 30.19 in 10.0 mi East 11.5 mph - N/A   Partly Cloudy
10:53 AM 84.9 °F 90.7 °F 72.0 °F 65% 30.18 in 10.0 mi East 12.7 mph 18.4 mph N/A   Scattered Clouds
11:53 AM 88.0 °F 94.7 °F 72.0 °F 59% 30.18 in 10.0 mi East 11.5 mph - N/A   Partly Cloudy
12:53 PM 89.1 °F 96.0 °F 72.0 °F 57% 30.17 in 10.0 mi ENE 12.7 mph 17.3 mph N/A   Scattered Clouds
1:53 PM 91.9 °F 97.4 °F 70.0 °F 48% 30.16 in 10.0 mi ENE 13.8 mph 17.3 mph N/A   Clear
2:53 PM 93.0 °F 100.1 °F 71.1 °F 49% 30.13 in 10.0 mi ENE 17.3 mph 21.9 mph N/A   Clear
3:53 PM 90.0 °F 95.4 °F 70.0 °F 52% 30.12 in 10.0 mi ENE 13.8 mph 21.9 mph N/A   Scattered Clouds
4:53 PM 88.0 °F 94.7 °F 72.0 °F 59% 30.12 in 10.0 mi ENE 11.5 mph 18.4 mph N/A   Clear
5:53 PM 80.1 °F 83.6 °F 71.1 °F 74% 30.13 in 10.0 mi ESE 12.7 mph - N/A   Partly Cloudy
6:53 PM 81.0 °F 85.2 °F 72.0 °F 74% 30.12 in 10.0 mi ESE 15.0 mph - N/A   Clear
7:53 PM 80.1 °F 83.8 °F 72.0 °F 76% 30.11 in 10.0 mi East 9.2 mph - N/A   Clear
8:49 PM 80.6 °F 84.6 °F 71.6 °F 74% 30.14 in 10.0 mi Calm Calm - N/A   Partly Cloudy
8:53 PM 80.1 °F 83.8 °F 72.0 °F 76% 30.13 in 10.0 mi East 4.6 mph - N/A   Clear
9:53 PM 79.0 °F - 72.0 °F 79% 30.15 in 10.0 mi ENE 3.5 mph - N/A   Clear
10:53 PM 78.1 °F - 73.0 °F 84% 30.15 in 10.0 mi East 5.8 mph - N/A   Clear
11:53 PM 78.1 °F - 73.9 °F 87% 30.14 in 10.0 mi East 4.6 mph - N/A   Clear